Location: Newark
(31.5350°N, 35.0986°E)
Time: 04:38:34
(UTC+00:00)

Courier 1B - Pass Details

Date: 27 September 2019
Orbit: 962 x 1209 km, 28.3° (Epoch: 15 October)

Event Time Altitude Azimuth Distance (km) Brightness Sun altitude
Exits shadow 02:16:44 24° 250° (WSW) 1,883 8.4 -16.5°
Maximum altitude 02:20:46 66° 175° (S) 1,072 7.7 -15.7°
Drops below altitude 10° 02:27:30 10° 94° (E) 2,815 11.3 -14.2°
Sets 02:30:17 0° 92° (E) 3,805 12.5 -13.6°
